TimeCDT,TemperatureF,Dew PointF,Humidity,Sea Level PressureIn,VisibilityMPH,Wind Direction,Wind SpeedMPH,Gust SpeedMPH,PrecipitationIn,Events,Conditions,WindDirDegrees,DateUTC
12:15 AM,21.4,19.4,92,30.02,10.0,WSW,3.5,-,N/A,,Clear,250,2013-03-22 05:15:00
12:35 AM,20.5,18.9,93,30.02,10.0,Calm,Calm,-,N/A,,Clear,0,2013-03-22 05:35:00
12:55 AM,20.3,19.0,95,30.02,10.0,Calm,Calm,-,N/A,,Clear,0,2013-03-22 05:55:00
1:15 AM,20.3,19.0,95,30.02,10.0,Calm,Calm,-,N/A,,Clear,0,2013-03-22 06:15:00
1:35 AM,19.9,18.7,95,30.02,10.0,WSW,3.5,-,N/A,,Clear,250,2013-03-22 06:35:00
2:15 AM,19.2,18.5,97,30.02,10.0,Calm,Calm,-,N/A,,Clear,0,2013-03-22 07:15:00
2:35 AM,18.9,18.0,96,30.02,10.0,Calm,Calm,-,N/A,,Clear,0,2013-03-22 07:35:00
2:55 AM,18.3,17.6,97,30.02,10.0,Calm,Calm,-,N/A,,Clear,0,2013-03-22 07:55:00
3:15 AM,18.3,17.4,96,30.02,10.0,Calm,Calm,-,N/A,,Clear,0,2013-03-22 08:15:00
3:35 AM,18.1,17.2,96,30.02,10.0,SW,3.5,-,N/A,,Clear,220,2013-03-22 08:35:00
3:55 AM,17.6,16.9,97,30.02,10.0,WSW,3.5,-,N/A,,Clear,240,2013-03-22 08:55:00
4:15 AM,18.1,17.1,96,30.02,10.0,WSW,3.5,-,N/A,,Clear,250,2013-03-22 09:15:00
4:35 AM,18.1,16.9,95,30.03,10.0,WSW,3.5,-,N/A,,Clear,250,2013-03-22 09:35:00
4:55 AM,17.6,16.3,95,30.03,10.0,WSW,3.5,-,N/A,,Clear,240,2013-03-22 09:55:00
5:15 AM,17.4,16.2,95,30.03,10.0,WSW,3.5,-,N/A,,Clear,250,2013-03-22 10:15:00
5:35 AM,17.2,16.2,96,30.03,10.0,WSW,4.6,-,N/A,,Clear,250,2013-03-22 10:35:00
5:55 AM,17.8,16.5,95,30.03,10.0,West,4.6,-,N/A,,Clear,260,2013-03-22 10:55:00
6:15 AM,17.1,15.8,95,30.03,10.0,Calm,Calm,-,N/A,,Clear,0,2013-03-22 11:15:00
6:35 AM,16.2,15.1,95,30.03,10.0,Calm,Calm,-,N/A,,Clear,0,2013-03-22 11:35:00
6:55 AM,16.2,14.9,95,30.03,7.0,SW,3.5,-,N/A,,Clear,230,2013-03-22 11:55:00
7:15 AM,16.3,15.3,96,30.03,7.0,Calm,Calm,-,N/A,,Clear,0,2013-03-22 12:15:00
7:35 AM,17.2,16.3,96,30.03,10.0,Calm,Calm,-,N/A,,Clear,0,2013-03-22 12:35:00
7:55 AM,19.2,18.1,96,30.03,10.0,SW,3.5,-,N/A,,Clear,230,2013-03-22 12:55:00
8:15 AM,21.9,19.9,92,30.03,10.0,WSW,5.8,-,N/A,,Clear,250,2013-03-22 13:15:00
8:35 AM,23.9,21.0,89,30.03,10.0,WSW,5.8,-,N/A,,Clear,240,2013-03-22 13:35:00
8:55 AM,25.5,21.7,86,30.03,10.0,West,5.8,-,N/A,,Clear,260,2013-03-22 13:55:00
9:15 AM,27.1,21.6,80,30.03,10.0,West,3.5,-,N/A,,Clear,270,2013-03-22 14:15:00
9:35 AM,28.2,20.5,73,30.03,10.0,WNW,4.6,-,N/A,,Clear,300,2013-03-22 14:35:00
9:55 AM,29.3,19.6,67,30.03,10.0,NW,3.5,-,N/A,,Clear,320,2013-03-22 14:55:00
10:15 AM,30.0,19.6,65,30.03,10.0,West,5.8,-,N/A,,Clear,260,2013-03-22 15:15:00
10:35 AM,31.5,18.7,59,30.03,10.0,WNW,5.8,-,N/A,,Clear,300,2013-03-22 15:35:00
10:55 AM,32.0,17.1,54,30.03,10.0,WNW,8.1,-,N/A,,Clear,290,2013-03-22 15:55:00
11:15 AM,32.2,16.5,53,30.04,10.0,West,10.4,-,N/A,,Clear,260,2013-03-22 16:15:00
11:35 AM,32.9,15.8,49,30.04,10.0,West,9.2,-,N/A,,Clear,260,2013-03-22 16:35:00
11:55 AM,34.2,15.6,47,30.04,10.0,WSW,8.1,-,N/A,,Clear,250,2013-03-22 16:55:00
12:15 PM,35.1,15.6,45,30.03,10.0,WNW,12.7,-,N/A,,Clear,290,2013-03-22 17:15:00
12:35 PM,35.8,15.3,43,30.03,10.0,WNW,10.4,-,N/A,,Clear,290,2013-03-22 17:35:00
1:15 PM,37.0,14.7,40,30.02,10.0,West,10.4,16.1,N/A,,Clear,270,2013-03-22 18:15:00
1:35 PM,37.6,14.4,39,30.01,10.0,West,12.7,17.3,N/A,,Clear,280,2013-03-22 18:35:00
1:55 PM,38.7,14.7,38,30.01,10.0,WNW,8.1,-,N/A,,Clear,290,2013-03-22 18:55:00
2:15 PM,38.8,14.7,37,30.00,10.0,West,5.8,9.2,N/A,,Clear,270,2013-03-22 19:15:00
2:35 PM,39.4,14.7,37,29.99,10.0,West,11.5,-,N/A,,Clear,270,2013-03-22 19:35:00
2:55 PM,39.6,14.9,37,29.98,10.0,WNW,13.8,-,N/A,,Clear,290,2013-03-22 19:55:00
3:15 PM,39.9,14.9,36,29.98,10.0,West,12.7,-,N/A,,Clear,260,2013-03-22 20:15:00
3:35 PM,40.3,14.5,35,29.98,10.0,WNW,12.7,16.1,N/A,,Clear,300,2013-03-22 20:35:00
3:55 PM,40.5,15.1,36,29.98,10.0,WNW,9.2,-,N/A,,Clear,300,2013-03-22 20:55:00
4:15 PM,40.6,13.6,33,29.97,10.0,West,9.2,-,N/A,,Clear,270,2013-03-22 21:15:00
4:35 PM,40.8,15.1,35,29.98,10.0,WNW,4.6,-,N/A,,Clear,290,2013-03-22 21:35:00
4:55 PM,40.8,14.9,35,29.98,10.0,West,10.4,-,N/A,,Clear,270,2013-03-22 21:55:00
5:15 PM,40.6,15.4,36,29.99,10.0,WNW,6.9,-,N/A,,Clear,290,2013-03-22 22:15:00
5:35 PM,40.5,15.1,36,29.99,10.0,West,9.2,-,N/A,,Clear,260,2013-03-22 22:35:00
5:55 PM,40.1,15.1,36,30.00,10.0,West,8.1,-,N/A,,Clear,270,2013-03-22 22:55:00
6:15 PM,39.7,14.7,36,30.00,10.0,West,8.1,-,N/A,,Clear,280,2013-03-22 23:15:00
6:35 PM,37.8,15.6,41,30.00,10.0,North,9.2,-,N/A,,Clear,10,2013-03-22 23:35:00
6:55 PM,34.3,16.5,48,30.01,10.0,NNE,8.1,-,N/A,,Clear,20,2013-03-22 23:55:00
7:15 PM,31.5,16.7,54,30.02,10.0,NNE,5.8,-,N/A,,Clear,20,2013-03-23 00:15:00
7:35 PM,30.0,17.2,59,30.03,10.0,NNE,5.8,-,N/A,,Clear,20,2013-03-23 00:35:00
7:55 PM,29.3,16.7,59,30.02,10.0,NNE,6.9,-,N/A,,Clear,30,2013-03-23 00:55:00
8:15 PM,28.4,16.3,61,30.02,10.0,NNE,6.9,-,N/A,,Clear,20,2013-03-23 01:15:00
8:35 PM,27.3,16.3,63,30.02,10.0,NNE,5.8,-,N/A,,Clear,30,2013-03-23 01:35:00
8:55 PM,27.5,16.7,64,30.02,10.0,NNE,6.9,-,N/A,,Clear,20,2013-03-23 01:55:00
9:15 PM,27.0,17.1,66,30.03,10.0,NNE,3.5,-,N/A,,Clear,30,2013-03-23 02:15:00
9:35 PM,27.0,18.1,69,30.03,10.0,NNE,3.5,-,N/A,,Clear,20,2013-03-23 02:35:00
9:55 PM,26.8,18.9,72,30.04,10.0,North,3.5,-,N/A,,Clear,10,2013-03-23 02:55:00
10:15 PM,26.6,19.6,75,30.05,10.0,North,3.5,-,N/A,,Clear,360,2013-03-23 03:15:00
10:35 PM,25.5,19.4,78,30.06,10.0,North,3.5,-,N/A,,Clear,360,2013-03-23 03:35:00
11:15 PM,25.9,18.7,74,30.05,10.0,Calm,Calm,-,N/A,,Clear,0,2013-03-23 04:15:00
11:35 PM,25.7,18.5,74,30.05,10.0,North,3.5,-,N/A,,Clear,10,2013-03-23 04:35:00